Lid_Strength_Index
1 4 6 7 10 11 14 12 9 9 9 8 7 8 9 8 9 12 5 3 1 0 -0 -1 -1 -2 -2 -2 -2 -2 -2 -2 -2 -2 -2 -2 -2 -2 -2 -2 -2 -2 -2 -2 -2 -2 -2 -2 -2
2 3 7 9 12 16 15 10 11 10 8 7 7 7 8 8 5 6 6 2 0 -0 -0 -0 -1 -2 -2 -2 -2 -2 -2 -2 -2 -2 -2 -2 -2 -2 -2 -2 -2 -2 -2 -2 -2 -2 -2 -2 -2
4 3 9 11 12 15 14 11 10 9 8 8 8 7 7 7 6 6 5 1 -0 0 -0 -0 -1 -2 -2 -2 -2 -2 -2 -2 -2 -2 -2 -2 -2 -2 -2 -2 -2 -2 -2 -2 -2 -2 -2 -2 -1
7 8 9 13 13 11 11 10 8 9 8 7 7 8 7 6 5 5 3 1 0 0 -0 -0 -1 -2 -2 -2 -2 -2 -2 -2 -2 -2 -2 -2 -2 -2 -2 -2 -2 -2 -2 -2 -2 -2 -2 -2 -1
8 10 14 14 13 11 10 9 8 8 9 7 6 8 7 5 4 4 3 1 1 1 -0 -0 -1 -1 -2 -2 -2 -2 -2 -2 -2 -2 -2 -2 -2 -2 -2 -2 -2 -2 -2 -2 -2 -2 -2 -2 -1
11 12 16 17 14 12 11 9 9 9 9 8 8 7 7 5 4 4 3 2 0 1 -0 -0 0 -1 -1 -2 -2 -2 -2 -2 -2 -2 -2 -2 -2 -2 -2 -2 -2 -2 -2 -2 -2 -2 -2 -1 -1
13 14 16 16 14 13 11 10 10 10 10 9 7 8 7 5 3 4 2 0 1 0 -0 -0 -0 -0 0 -1 -1 -1 -2 -2 -2 -2 -2 -2 -2 -2 -2 -1 -2 -2 -1 -2 -2 -1 -1 -1 -0
11 13 15 15 15 14 11 11 9 11 11 7 6 8 8 5 3 4 2 1 1 1 0 -0 -0 -0 -0 -1 -0 -1 -1 -1 -2 -2 -2 -1 -2 -2 -2 -1 -2 -1 -1 -1 -1 -1 -1 -0 0
10 15 17 15 14 13 11 12 10 8 9 9 7 6 5 3 3 3 3 2 2 1 0 -0 0 1 0 0 0 0 -0 -1 -1 -1 -0 0 0 1 0 -0 -1 -1 -0 -0 -0 0 1 1 2
13 16 15 12 13 13 11 12 11 10 10 10 7 5 3 3 3 4 4 4 3 2 1 0 0 1 1 1 2 1 0 0 1 1 1 1 2 1 1 1 0 0 -0 0 0 1 2 4 7
13 15 13 12 11 11 11 11 11 12 12 10 9 7 4 4 4 4 4 3 3 2 1 1 0 -0 1 1 2 3 1 2 2 3 2 2 2 3 2 3 4 3 3 4 4 6 8 10 9
15 13 11 10 10 11 12 11 11 11 11 9 9 6 4 5 4 4 4 4 3 2 1 1 0 0 1 1 2 3 2 2 2 3 3 3 3 4 4 5 6 6 6 7 9 10 11 11 11
16 14 12 12 11 12 11 13 12 11 9 9 9 5 5 4 4 4 3 3 3 2 2 1 1 1 1 1 2 3 2 2 2 3 3 3 3 4 4 5 6 6 7 8 10 12 12 12 12
14 14 14 13 13 13 13 13 12 12 9 9 9 8 6 4 4 4 3 3 3 2 2 1 1 1 1 1 2 3 3 2 2 2 3 3 3 4 4 4 5 7 8 8 10 11 12 12 12
13 16 15 15 14 14 12 15 14 11 10 10 10 10 10 5 4 4 3 3 3 2 2 1 1 1 1 1 1 2 3 2 2 3 3 3 3 4 4 4 6 7 8 8 10 11 12 12 12
15 17 20 16 14 14 14 18 14 12 12 12 11 10 11 10 6 4 3 3 2 2 2 2 1 1 1 1 2 2 2 2 2 3 3 3 2 3 4 4 5 7 8 9 11 12 12 12 12
17 21 19 17 13 13 15 17 14 12 13 13 13 11 10 10 10 7 4 2 2 2 2 2 1 1 1 1 2 2 3 2 2 3 3 3 3 3 4 4 5 7 9 10 11 12 12 12 12
19 18 18 19 15 14 16 16 14 14 13 13 14 14 13 11 10 9 7 3 2 2 2 1 1 1 1 1 1 2 3 2 2 3 3 3 3 3 4 5 6 7 9 10 11 12 12 11 11
15 15 18 17 14 13 16 17 16 14 14 14 14 14 13 12 10 10 8 4 2 2 2 2 2 1 1 1 2 2 4 2 2 3 3 3 3 3 3 5 6 7 9 10 11 11 11 11 11
13 14 16 14 12 11 14 17 16 16 15 14 13 14 13 12 11 10 10 6 3 3 3 2 2 1 1 1 2 1 2 2 3 3 3 3 4 3 3 4 5 7 8 9 10 10 10 10 10
13 15 15 14 12 11 14 17 15 15 14 14 13 12 12 12 11 10 9 7 3 3 3 3 2 1 1 1 1 1 2 4 4 4 4 3 4 4 3 4 5 6 7 8 9 9 10 11 11
15 11 12 12 13 17 13 22 18 17 16 14 12 11 11 11 10 10 9 9 4 3 2 2 2 2 1 1 1 2 3 3 3 3 3 4 4 4 3 4 4 5 6 7 8 9 9 10 11
13 10 11 12 15 16 18 20 21 16 16 15 13 12 11 10 10 10 9 9 4 2 3 2 2 2 1 1 1 2 3 3 2 2 4 4 5 4 5 4 4 4 5 6 7 8 9 9 10
10 12 12 13 14 19 18 18 20 18 16 14 12 12 11 11 10 10 9 9 8 3 3 2 2 2 2 2 1 2 3 3 3 3 4 4 4 5 5 5 4 4 5 6 6 7 8 8 9
11 14 17 19 20 21 16 17 18 16 14 14 13 12 12 11 11 10 10 10 9 5 4 3 3 3 2 2 2 2 2 2 3 3 4 4 4 5 5 5 5 5 5 5 6 7 7 8 9
12 13 17 23 21 20 15 18 18 13 11 10 10 12 11 11 10 10 9 9 9 6 4 3 3 3 2 2 2 1 2 2 2 2 3 4 3 4 4 5 5 5 5 6 6 7 7 8 9
13 15 12 15 16 18 18 16 15 13 12 12 12 11 11 10 10 10 9 9 8 7 4 3 3 3 2 2 2 2 1 2 2 2 3 4 4 4 4 5 6 6 6 6 6 6 7 8 9
11 10 15 14 21 22 19 18 19 16 14 12 12 11 10 10 10 10 10 9 8 7 4 3 2 3 2 2 2 2 2 1 2 2 2 3 4 4 4 5 5 6 6 6 7 7 7 8 8
15 14 14 13 15 19 20 18 13 13 12 11 11 10 10 10 9 8 9 9 8 7 6 4 3 3 3 2 2 2 2 1 2 2 2 2 3 4 4 5 5 6 6 7 8 8 8 9 9
13 14 13 17 18 16 16 16 11 11 10 10 9 9 9 8 9 8 8 8 8 8 7 6 4 3 3 3 2 2 2 2 2 2 1 2 3 3 4 5 5 5 6 7 8 9 9 9 9